Location: Asheville, NC
(35.6000°N, 82.5500°W)
Time: 03:49:44
(UTC-04:00)

Hubble Space Telescope - Pass Details

Date: 07 January 2018
Orbit: 537 x 541 km, 28.5° (Epoch: 16 July)

Event Time Altitude Azimuth Distance (km) Brightness Sun altitude
Exits shadow 04:40:33 11° 116° (ESE) 1,714 4.0 -35.9°
Drops below altitude 10° 04:40:46 10° 114° (ESE) 1,784 4.1 -35.8°
Sets 04:43:18 0° 101° (ESE) 2,674 5.3 -35.3°
